Location: Chicoutimi
(48.4330°N, 71.0670°W)
Time: 22:10:35
(UTC-04:00)

ISS - Visible Passes

Search period start: 28 May 2015 00:00
Search period end: 07 June 2015 00:00
Orbit: 399 x 404 km, 51.6° (Epoch: 28 May)

Date Brightness Start Highest point End Pass type
(mag) Time Alt. Az. Time Alt. Az. Time Alt. Az.
28 May -2.7 01:34:53 26° W 01:36:27 56° NNW 01:39:41 10° ENE visible
28 May -2.3 03:09:58 10° WNW 03:13:10 49° N 03:16:22 10° E visible
29 May -3.2 00:42:46 62° WNW 00:43:09 73° NNW 00:46:25 10° ENE visible
29 May -2.2 02:16:40 10° WNW 02:19:49 45° N 02:23:00 10° ENE visible
29 May -3.3 03:53:10 10° WNW 03:56:28 86° NNE 03:59:44 10° ESE visible
29 May -3.5 23:50:04 74° ESE 23:50:04 74° ESE 23:53:10 10° ENE visible
30 May -2.3 01:23:18 10° W 01:26:28 46° N 01:29:39 10° ENE visible
30 May -2.8 02:59:56 10° WNW 03:03:10 63° NNE 03:06:25 10° E visible
30 May -3.2 22:53:32 10° SW 22:56:41 49° SSE 22:59:51 10° ENE visible
31 May -2.6 00:29:55 10° W 00:33:07 53° N 00:36:20 10° ENE visible
31 May -2.4 02:06:38 10° WNW 02:09:50 50° N 02:13:02 10° E visible
31 May -3.3 03:43:06 10° WNW 03:46:19 56° SSW 03:49:31 10° SE visible
31 May -2.6 22:00:39 10° SSW 22:03:31 30° SE 22:06:26 10° E visible
31 May -3.0 23:36:32 10° W 23:39:47 68° NNW 23:43:02 10° ENE visible
01 Jun -2.2 01:13:18 10° WNW 01:16:28 45° N 01:19:38 10° ENE visible
01 Jun -3.4 02:49:48 10° WNW 02:53:04 87° SSW 02:56:21 10° ESE visible
01 Jun -3.5 22:43:13 10° WSW 22:46:29 86° SSE 22:49:45 10° ENE visible
02 Jun -2.2 00:19:55 10° WNW 00:23:05 45° N 00:26:15 10° ENE visible
02 Jun -3.0 01:56:31 10° WNW 01:59:47 67° NNE 02:03:01 10° E visible
02 Jun -2.6 03:33:06 10° W 03:36:02 30° SW 03:38:57 10° SSE visible
02 Jun -3.3 21:50:02 10° SW 21:53:13 55° SSE 21:56:25 10° ENE visible
02 Jun -2.4 23:26:30 10° W 23:29:41 51° N 23:32:53 10° ENE visible
03 Jun -2.5 01:03:12 10° WNW 01:06:25 53° N 01:09:37 10° E visible
03 Jun -3.2 02:39:40 10° WNW 02:42:51 50° SSW 02:46:01 10° SE visible
03 Jun -2.9 22:33:04 10° W 22:36:19 63° NNW 22:39:34 10° ENE visible
04 Jun -2.3 00:09:51 10° WNW 00:13:01 46° N 00:16:11 10° E visible
04 Jun -3.5 01:46:20 10° WNW 01:49:35 79° SSW 01:52:51 10° ESE visible
04 Jun -1.7 03:23:27 10° W 03:25:37 16° SW 03:25:57 16° SW visible
04 Jun -3.3 21:39:43 10° WSW 21:42:58 87° NNW 21:46:14 10° ENE visible
04 Jun -2.2 23:16:26 10° WNW 23:19:35 45° N 23:22:45 10° ENE visible
05 Jun -3.2 00:53:01 10° WNW 00:56:16 72° NNE 00:58:03 24° E visible
05 Jun -1.3 02:29:39 10° W 02:30:31 15° W 02:30:31 15° W visible
05 Jun -2.3 22:22:59 10° W 22:26:10 49° N 22:29:21 10° ENE visible
05 Jun -2.7 23:59:40 10° WNW 00:02:53 55° NNE 00:05:23 15° E visible
06 Jun -2.0 01:36:09 10° WNW 01:37:54 27° W 01:37:54 27° W visible
06 Jun -2.7 21:29:32 10° W 21:32:45 59° NNW 21:35:59 10° ENE visible
06 Jun -2.3 23:06:17 10° WNW 23:09:27 47° N 23:12:38 10° E visible
